Tracking 31027 objects as of 19-Jul-2025
HD Live streaming from Space Station
objects crossing your sky now

NOAA 16 DEB

Track NOAA 16 DEB now!
10-day predictions


NORAD ID: 41534
Int'l Code: 2000-055NJ
Perigee: 785.3 km
Apogee: 816.4 km
Inclination: 98.8 °
Period: 100.7 minutes
Semi major axis: 7171 km
RCS: Unknown
Launch date: September 21, 2000
Source: United States (US)
Launch site: AIR FORCE WESTERN TEST RANGE (AFWTR)

Note: This is SATELLITE DEBRIS
Your satellite tracking list
EKRAN 2 DEB
Track 1 satellite(s)




NASA's NSSDC Master Catalog

Two Line Element Set (TLE):
1 41534U 00055NJ  25199.44564059  .00004476  00000-0  17674-2 0  9998
2 41534  98.8225 277.7377 0021717  84.3744 275.9913 14.29413854475576
Source of the keplerian elements: AFSPC